Weather reports worldwide

Advertisment
Ramstein, Germany (10614): temperature & dewpoint: 22.01.2020 07:00:00 - 28.01.2020 07:00:00 (CET)Ramstein, Germany (10614): wind speed & gusts: 22.01.2020 07:00:00 - 28.01.2020 07:00:00 (CET)Ramstein, Germany (10614): wind direction: 22.01.2020 07:00:00 - 28.01.2020 07:00:00 (CET)Ramstein, Germany (10614): reduced air pressure: 22.01.2020 07:00:00 - 28.01.2020 07:00:00 (CET)Ramstein, Germany (10614): visibility: 22.01.2020 07:00:00 - 28.01.2020 07:00:00 (CET)Ramstein, Germany (10614): precipitation: 22.01.2020 07:00:00 - 28.01.2020 07:00:00 (CET)
Date & Time tt [°C] td [°C] ff [km/h] ff [kn] fx [km/h] fx [kn] dd ppp [hPa] vv [km] rr [mm]
28.01.2020 07:00:00 6,4 6,4 18 10 - - SSW 997,2 9 0,3
28.01.2020 06:00:00 6,4 6,4 26 14 48 26 SSW 997,7 10 0,3
28.01.2020 05:00:00 6,3 6,3 26 14 52 28 SW 999,5 10 1,0
28.01.2020 04:00:00 6,0 6,0 21 11 50 27 SW 999,9 10 0,3
28.01.2020 03:00:00 6,7 6,7 29 16 55 30 SW 1000,8 10 1,0
28.01.2020 02:00:00 6,5 6,5 18 10 54 29 SW 1000,8 10 0,5
28.01.2020 01:00:00 7,0 7,0 26 14 50 27 SW 1001,5 10 0,5
28.01.2020 00:00:00 6,3 6,3 21 11 48 26 SSW 1002,2 10 1,8
27.01.2020 23:00:00 6,1 6,1 22 12 48 26 SW 1002,5 10 0,0
27.01.2020 22:00:00 5,7 5,7 18 10 48 26 SSW 1004,5 9 0,0
27.01.2020 21:00:00 5,8 5,8 24 13 - - SSW 1005,0 10 0,3
27.01.2020 20:00:00 5,6 5,6 16 9 - - SSW 1006,4 10 1,5
27.01.2020 19:00:00 5,8 5,8 15 8 - - SW 1007,4 8 1,5
27.01.2020 18:00:00 6,1 6,1 16 9 - - SSW 1007,6 8 1,0
27.01.2020 17:00:00 6,0 6,0 18 10 - - SW 1008,4 8 1,3
27.01.2020 16:00:00 6,2 6,2 21 11 54 29 SSW 1009,4 8 1,8
27.01.2020 15:00:00 6,3 6,3 22 12 50 27 SSW 1010,1 8 1,8
27.01.2020 14:00:00 7,2 7,2 21 11 - - SW 1011,0 10 0,5
27.01.2020 13:00:00 7,4 7,4 24 13 - - SSW 1011,5 10 0,3
27.01.2020 12:00:00 7,5 7,5 11 6 - - SSW 1012,6 9 0,5
27.01.2020 11:00:00 7,5 7,5 22 12 - - SW 1013,4 9 0,5
27.01.2020 10:00:00 7,2 7,2 15 8 - - SSW 1014,2 10 0,3
27.01.2020 09:00:00 6,7 6,7 15 8 - - SSW 1014,5 9 0,0
27.01.2020 08:00:00 6,7 6,7 15 8 - - SSW 1014,8 9 0,3
27.01.2020 07:00:00 6,8 6,8 11 6 - - SW 1015,1 10 0,0
27.01.2020 06:00:00 6,9 6,9 15 8 - - SSW 1015,3 10 0,0
27.01.2020 05:00:00 6,8 6,8 9 5 - - SW 1016,0 10 -
27.01.2020 04:00:00 6,6 6,6 13 7 - - SW 1016,1 10 -
27.01.2020 03:00:00 6,3 6,3 9 5 - - SW 1016,9 10 -
27.01.2020 02:00:00 6,1 6,1 11 6 - - W 1017,0 10 -
27.01.2020 01:00:00 5,7 5,7 11 6 - - WSW 1017,5 10 -
27.01.2020 00:00:00 1,6 1,6 0 0 - - N 1018,0 10 -
26.01.2020 23:00:00 0,4 0,4 0 0 - - N 1018,6 9 -
26.01.2020 22:00:00 -1,1 -1,1 0 0 - - N 1019,1 0,8 -
26.01.2020 21:00:00 0,0 0,0 0 0 - - N 1018,9 5 -
26.01.2020 20:00:00 1,2 1,2 0 0 - - N 1018,6 9 -
26.01.2020 19:00:00 1,6 1,6 0 0 - - N 1018,8 8 -
26.01.2020 18:00:00 2,1 2,1 0 0 - - N 1018,8 8 -
26.01.2020 17:00:00 3,2 3,2 0 0 - - N 1018,8 10 -
26.01.2020 16:00:00 6,1 6,1 0 0 - - N 1018,6 10 -
26.01.2020 15:00:00 5,7 5,7 5 3 - - W 1018,6 10 -
26.01.2020 14:00:00 4,2 4,2 0 0 - - N 1019,4 10 -
26.01.2020 13:00:00 2,0 2,0 0 0 - - N 1019,9 10 -
26.01.2020 12:00:00 1,2 1,2 0 0 - - N 1020,5 6 -
26.01.2020 11:00:00 0,1 0,1 0 0 - - N 1021,0 3,2 -
26.01.2020 10:00:00 -0,4 -0,4 0 0 - - N 1020,9 0,8 -
26.01.2020 09:00:00 -0,5 -0,5 0 0 - - N 1020,5 1,0 -
26.01.2020 08:00:00 -0,7 -0,7 0 0 - - N 1020,7 0,8 -
26.01.2020 07:00:00 -1,0 -1,0 0 0 - - N 1020,7 0,8 -
26.01.2020 06:00:00 -0,6 -0,6 5 3 - - ENE 1020,7 1,6 -
26.01.2020 05:00:00 -0,6 -0,6 0 0 - - N 1020,7 1,0 -
26.01.2020 04:00:00 -0,6 -0,6 0 0 - - N 1021,0 1,0 -
26.01.2020 03:00:00 -0,4 -0,4 5 3 - - NNE 1021,2 1,0 -
26.01.2020 02:00:00 -0,3 -0,3 5 3 - - NE 1021,2 0,8 -
26.01.2020 01:00:00 0,1 0,1 5 3 - - NNE 1021,6 0,8 -
26.01.2020 00:00:00 0,5 0,5 0 0 - - N 1021,9 0,6 -
25.01.2020 23:00:00 0,9 0,9 5 3 - - E 1021,9 0,6 -
25.01.2020 22:00:00 1,3 1,3 5 3 - - NNE 1022,4 0,6 -
25.01.2020 21:00:00 1,7 1,7 0 0 - - N 1022,4 0,4 -
25.01.2020 20:00:00 2,0 2,0 0 0 - - N 1022,4 0,6 -
25.01.2020 19:00:00 1,3 1,3 5 3 - - NE 1022,4 0,6 -
25.01.2020 18:00:00 1,4 1,4 0 0 - - N 1022,4 0,4 -
25.01.2020 17:00:00 1,7 1,7 0 0 - - N 1022,4 0,2 -
25.01.2020 16:00:00 1,8 1,8 0 0 - - N 1022,4 0,4 -
25.01.2020 15:00:00 2,0 2,0 0 0 - - N 1022,7 0,8 -
25.01.2020 14:00:00 1,9 1,9 0 0 - - N 1023,0 1,0 -
25.01.2020 13:00:00 1,1 1,1 0 0 - - N 1023,7 0,6 -
25.01.2020 12:00:00 0,6 0,6 0 0 - - N 1024,4 0,8 -
25.01.2020 11:00:00 -0,1 -0,1 0 0 - - N 1024,4 0,8 -
25.01.2020 10:00:00 -0,5 -0,5 0 0 - - N 1024,4 0,6 -
25.01.2020 09:00:00 -1,0 -1,0 0 0 - - N 1023,7 1,6 -
25.01.2020 08:00:00 -1,5 -1,5 0 0 - - N 1023,8 0,6 -
25.01.2020 07:00:00 -1,8 -1,8 0 0 - - N 1024,0 0,6 -
25.01.2020 06:00:00 -1,9 -1,9 0 0 - - N 1023,6 0,6 -
25.01.2020 05:00:00 -1,5 -1,5 0 0 - - N 1023,0 0,4 -
25.01.2020 04:00:00 -1,0 -1,0 0 0 - - N 1023,6 0,6 -
25.01.2020 03:00:00 -1,2 -1,2 0 0 - - N 1023,6 0,6 -
25.01.2020 02:00:00 -1,1 -1,1 0 0 - - N 1023,7 0,6 -
25.01.2020 01:00:00 -0,7 -0,7 0 0 - - N 1023,7 0,6 -
25.01.2020 00:00:00 -0,6 -0,6 0 0 - - N 1024,4 0,6 -
24.01.2020 23:00:00 -0,3 -0,3 0 0 - - N 1024,4 0,6 -
24.01.2020 22:00:00 -0,2 -0,2 0 0 - - N 1024,1 0,6 -
24.01.2020 21:00:00 0,1 0,1 0 0 - - N 1024,7 1,6 -
24.01.2020 20:00:00 -0,3 -0,3 0 0 - - N 1024,7 6 -
24.01.2020 19:00:00 -2,0 -2,0 0 0 - - N 1024,5 6 -
24.01.2020 18:00:00 -1,3 -1,3 0 0 - - N 1024,2 6 -
24.01.2020 17:00:00 1,2 1,1 0 0 - - N 1024,1 6 -
24.01.2020 16:00:00 2,5 1,9 8 4 - - W 1023,6 10 -
24.01.2020 15:00:00 2,2 1,6 5 3 - - W 1024,0 8 -
24.01.2020 14:00:00 1,7 1,4 5 3 - - WNW 1024,6 6 -
24.01.2020 13:00:00 1,1 1,0 0 0 - - N 1025,1 5 -
24.01.2020 12:00:00 0,5 0,4 5 3 - - NW 1025,3 5 -
24.01.2020 11:00:00 0,1 0,0 0 0 - - N 1026,1 5 -
24.01.2020 10:00:00 -0,4 -0,5 0 0 - - N 1026,1 5 -
24.01.2020 09:00:00 -0,6 -0,7 5 3 - - WSW 1026,1 5 -
24.01.2020 08:00:00 -0,5 -0,6 0 0 - - N 1026,1 9 -
24.01.2020 07:00:00 -0,4 -0,7 0 0 - - N 1026,1 10 -
24.01.2020 06:00:00 -0,5 -0,9 0 0 - - N 1026,1 10 -
24.01.2020 05:00:00 -0,5 -0,9 0 0 - - N 1026,1 10 -
24.01.2020 04:00:00 -0,6 -0,9 0 0 - - N 1026,4 10 -
24.01.2020 03:00:00 -0,5 -0,6 0 0 - - N 1027,1 10 -
24.01.2020 02:00:00 -0,4 -0,5 0 0 - - N 1027,5 10 -
24.01.2020 01:00:00 -0,1 -0,2 5 3 - - SE 1027,8 10 -
24.01.2020 00:00:00 0,1 -0,2 5 3 - - SSE 1028,2 10 -
23.01.2020 23:00:00 0,1 0,0 0 0 - - N 1028,2 10 -
23.01.2020 22:00:00 0,2 0,1 5 3 - - ESE 1028,5 8 -
23.01.2020 21:00:00 0,3 0,2 9 5 - - NE 1028,2 8 -
23.01.2020 20:00:00 0,4 0,3 11 6 - - NNE 1028,5 8 -
23.01.2020 19:00:00 0,4 0,3 11 6 - - NNE 1028,5 8 -
23.01.2020 18:00:00 0,4 0,3 13 7 - - NE 1028,8 8 -
23.01.2020 17:00:00 0,4 0,3 15 8 - - NE 1028,8 8 -
23.01.2020 16:00:00 0,5 0,5 21 11 - - NE 1029,1 8 -
23.01.2020 15:00:00 0,6 0,6 18 10 - - NE 1030,2 8 -
23.01.2020 14:00:00 0,6 0,6 15 8 - - NE 1030,9 8 -
23.01.2020 13:00:00 0,5 0,5 16 9 - - NNE 1032,2 10 -
23.01.2020 12:00:00 0,4 0,4 16 9 - - NE 1033,0 10 -
23.01.2020 11:00:00 0,3 0,3 15 8 - - NE 1033,4 10 -
23.01.2020 10:00:00 0,1 0,1 22 12 - - NE 1033,4 8 -
23.01.2020 09:00:00 0,0 0,0 16 9 - - NE 1033,7 8 -
23.01.2020 08:00:00 0,0 0,0 22 12 - - NE 1033,7 8 -
23.01.2020 07:00:00 0,0 0,0 18 10 - - NE 1033,7 10 -
23.01.2020 06:00:00 0,0 0,0 21 11 - - NE 1034,1 10 -
23.01.2020 05:00:00 -0,1 -0,1 21 11 - - NE 1034,2 10 -
23.01.2020 04:00:00 0,0 0,0 13 7 - - NNE 1034,8 10 -
23.01.2020 03:00:00 -0,2 -0,2 15 8 - - NE 1035,4 10 -
23.01.2020 02:00:00 -0,6 -0,6 9 5 - - ENE 1036,2 8 -
23.01.2020 01:00:00 -0,9 -0,9 11 6 - - NE 1036,6 5 -
23.01.2020 00:00:00 -1,0 -1,0 8 4 - - ENE 1037,4 3,2 -
22.01.2020 23:00:00 - - - - - - - - - -
22.01.2020 22:00:00 -1,8 -1,8 13 7 - - NE 1037,4 8 -
22.01.2020 21:00:00 -2,5 -2,5 13 7 - - ENE 1037,2 8 -
22.01.2020 20:00:00 -2,4 -2,4 9 5 - - ENE 1036,8 10 -
22.01.2020 19:00:00 -3,0 -3,0 9 5 - - E - 10 -
22.01.2020 18:00:00 - - - - - - - - - -
22.01.2020 17:00:00 - - - - - - - - - -
22.01.2020 16:00:00 - - - - - - - - - -
22.01.2020 15:00:00 - - - - - - - - - -
22.01.2020 14:00:00 - - - - - - - - - -
22.01.2020 13:00:00 - - - - - - - - - -
22.01.2020 12:00:00 - - - - - - - - - -
22.01.2020 11:00:00 -1,2 -1,3 0 0 - - N 1037,0 10 -
22.01.2020 10:00:00 -3,5 -3,6 0 0 - - N 1037,2 10 -
22.01.2020 09:00:00 -7,1 -7,2 0 0 - - N 1037,7 10 -
22.01.2020 08:00:00 -6,9 -7,0 0 0 - - N 1037,6 10 -
22.01.2020 07:00:00 -6,1 -6,2 0 0 - - N 1036,8 10 -

tt = temperature
td = dewpoint
ff = wind speed
fx = gusts
dd = wind direction
ppp = reduced air pressure
vv = visibility
rr = precipitation

Next stations